Погода Наро-Фоминск

Погода Наро-Фоминск : погода сейчас, прогноз погоды и архив. Всё, что Вы хотите узнать о погоде Наро-Фоминск!

Хотите узнать прогноз погоды Наро-Фоминск? Тогда Вам сюда: Погода Наро-Фоминск

Поиск расширенной информации на нашем сайте:

Другие новости

Новости СМИ2

Главная страница сайта

Новости сайта

03.07.2017

Напоминаем, что на нашем специализированном сайте Метеоцентр.Азия вы можете получить высокодетализированные автоматические прогнозы погоды по пунктам России, СНГ и мира в авиационном формате (включающие направление и скорость ветра, видимость, явления погоды, количество и форму облачности, нижнюю и верхнюю границу облачности).


Погода Наро-Фоминск - сегодня

Время (UTC), дата Ветер
(°,м/с) 
Видим.   Явления Облачность Т
(°С)
Тd
(°С)
f(%) Тe
(°С)
Pmin
(гПа)
dP
(гПа)
Po
(мм)
O2
(г/м3)
Тmin Tmax R s Состояние
почвы
03 15.08.17 300 (СЗ) 10 км    3/0 средняя 
[Ac trans]
+15 +14.2 95 +23  1023.3  1.5  750  284  +14.9    0.0     
06 15.08.17 010 (С) 10 км    ясно 
+18.9 +13.9 73 +27  1024.1  751  280  +14.9    0.0    сухая 
09 15.08.17 360 (С) 10 км    5/5 600 м 
[Cu med, cong]
+22.3 +12 52 +26  1024.7  0.8  752  278           
12 15.08.17 020 (С) 10 км    6/6 600 м 
[Cu med, cong]
+21.8 +9.7 46 +23  1025  0.2  752  279           
15 15.08.17 010 (С) 10 км    3/3 600 м 
[Sc diur, vesp]
+21.3 +9.8 48 +22  1025.1  0.1  752  279           
21 15.08.17 340 (С) 10 км    ясно 
+12.2 +8.6 79 +13  1027.9  754  289           
00 16.08.17 360 (С) 10 км    ясно 
+9.2 +8 92 +10  1028.4  0.2  754  292           
03 16.08.17 тихо ()   10 км    ясно 
+8.5 +8 97 +9  1028.9  0.4  754  293  +7.8         
06 16.08.17 070 (В) 10 км    ясно 
+18.4 +10.5 60 +22  1028.5  0.4  754  283  +7.8        сухая 
09 16.08.17 110 (В) 10 км    3/3 600 м 
[Cu hum]
+22.3 +9.3 43 +22  1027.7  -0.5  754  279           
12 16.08.17 090 (В) 10 км    5/5 600 м 
[Cu hum]
+23 +9.2 41 +23  1026.8  -0.8  753  278           
15 16.08.17 120 (ЮВ) 10 км    3/3 600 м 
[Sc]
+23 +9.4 42 +23  1026.1  -0.7  753  278           
18 16.08.17 тихо ()   10 км    ясно 
+15.4 +12 80 +19  1026.6  -0.1  753  285    +24.1       
21 16.08.17 тихо ()   10 км    1/0 средняя 
[Ac trans]
+13.1 +12.1 94 +17  1026.9  0.1  753  287           
00 17.08.17 140 (ЮВ) 10 км    8/4 600 м средняя 
[Sc|Ac trans]
+15 +12 82 +20  1026.8  0.1  753  285           
03 17.08.17 тихо ()   10 км    9/9 600 м 
[Sc]
+13.8 +12.8 94 +19  1027.1  0.2  753  286  +12.8         
06 17.08.17 130 (ЮВ) 10 км    3/0 средняя 
[Ac trans]
+20.3 +14.3 68 +28  1026.5  753  280  +12.8        сухая 
09 17.08.17 120 (ЮВ) 10 км    5/5 600 м 
[Cu med, cong]
+23.9 +9.4 40 +24  1026.1  -0.2  753  277           
12 17.08.17 140 (ЮВ) 10 км    8/8 600 м 
[Cu med, cong]
+25.3 +11.8 43 +29  1024.8  -1.2  752  275           
15 17.08.17 130 (ЮВ) 10 км    6/4 600 м верхняя 
[Cu med, cong|Ci fib]
+24.6 +12.8 48 +30  1023.9  -0.9  751  275           
18 17.08.17 120 (ЮВ) 10 км    8/4 600 м верхняя 
[Sc|Ci fib]
+19.5 +14.3 72 +28  1024.5  0.2  752  280    +25.5       
21 17.08.17 150 (ЮВ) 10 км    9/0 верхняя 
[Ci]
+18.1 +13.3 74 +26  1024.6  752  281           
00 18.08.17 140 (ЮВ) 10 км    4/3 600 м верхняя 
[Sc|Ci sp]
+15.7 +12.9 83 +22  1024.9  0.1  752  284           
03 18.08.17 тихо ()   10 км    9/3 600 м средняя, верхняя 
[Sc|Ac trans|Ci]
+14.3 +13.2 93 +20  1025  752  285  +13.9         
06 18.08.17 190 (Ю) 10 км    8/1 600 м верхняя 
[Cu med, cong|Ci]
+21 +14.6 67 +29  1024.4  752  278  +13.9        сухая 
Время (UTC), дата Ветер
(°,м/с) 
Видим.   Явления Облачность Т
(°С)
Тd
(°С)
f(%) Тe
(°С)
Pmin
(гПа)
dP
(гПа)
Po
(мм)
O2
(г/м3)
Тmin Tmax R s Состояние
почвы

Для получения пояснительной информации подведите курсор к названию столбца.

ПОГОДА Наро-Фоминск - архив

Всё, что Вы хотите узнать о погоде Наро-Фоминск - удобно и подробно!

Выберите нужную дату (начиная с 1 января 2015* года) и нажмите кнопку "Найти".
Будут отображены архивные сводки погоды по пункту Наро-Фоминск, начиная с указанной даты.


Отображать данные в формате CSV (для использования в таблицах Excel)


Внимание! Наш архив погоды предназначен исключительно для личного некоммерческого использования в познавательных целях. Если Вам необходимы официальные справки о состоянии погоды (для производственных, юридических, коммерческих и т.п. целей), обращайтесь в органы Росгидромета.

*Примечание: данная дата относится к архиву по метеостанциям СССР (Россия, СНГ, Балтия).
Архив по метеостанциям Зарубежной Европы и Азии (кроме Китая) хранится 10 дней, по другим регионам земного шара (Китай, Африка, Америка, Австралия, Океания) - 1 день.

Наро-Фоминск - район местоположения метеостанции


Название, широта, долгота, высота метеостанции:
Наро-Фоминск 55.4°ш. 36.7°д. 193 м над ур. моря [Российская Федерация]

Дополнительная информация

В oтличие oт бoльшинства пoгoдных сайтoв мы публикуем пoдрoбную метеoинфoрмацию в детальнoм прoфессиoнальнoм фoрмате.

Характеристики температуры и влажнoсти вoздуха измеряются на высoте 2 м в тени вдали oт зданий и деревьев.
Скoрoсть ветра измеряется на высoте 10 м (на урoвне рoста челoвека скoрoсть ветра ниже в 1.5-2 раза). Если метеoстанция нахoдится в гoрoде или в лесу, тo скoрoсть ветра занижена на 2-4 м/с пo сравнению с oткрытым местoм. Скoрoсть ветра над акватoриями крупных рек и oзёр, а также на вершинах хoлмoв на 2-5 м/с выше, чем в oбычных услoвиях.
Атмoсфернoе давление в разных тoчках местнoсти мoжет значительнo oтличаться oт давления на метеoстанции, в зависимoсти oт услoвий рельефа (при пoдъёме на 10 м давление пoнижается примернo на 1 мм рт.ст.).